Location: Peterborough
(44.3091°N, 78.3197°W)
Time: 17:33:59
(UTC-04:00)

Explorer 7 - Pass Details

Date: 22 March 2023
Orbit: 477 x 653 km, 50.3° (Epoch: 04 June)

Event Time Altitude Azimuth Distance (km) Brightness Sun altitude
Rises 21:25:20 0° 278° (W) 2,794 11.8 -21.2°
Reaches altitude 10° 21:27:49 10° 287° (WNW) 1,861 10.7 -21.6°
Maximum altitude 21:31:43 35° 354° (N) 881 8.0 -22.2°
Enters shadow 21:32:47 30° 27° (NNE) 977 8.0 -22.4°
Drops below altitude 10° 21:35:26 10° 62° (ENE) 1,759 - -22.8°
Sets 21:37:43 0° 72° (ENE) 2,618 - -23.2°
